Location: Newark
(55.7678°N, 23.6664°E)
Time: 20:10:05
(UTC+00:00)

N. Korean satellite - Pass Details

Date: 02 October 2020
Orbit: 452 x 505 km, 97.2° (Epoch: 28 October)

Event Time Altitude Azimuth Distance (km) Brightness Sun altitude
Rises 03:45:45 0° 18° (NNE) 2,590 10.6 -7.1°
Reaches altitude 10° 03:47:56 10° 25° (NNE) 1,694 9.7 -6.8°
Maximum altitude 03:51:25 43° 98° (E) 697 8.1 -6.4°
Drops below altitude 10° 03:54:50 10° 171° (S) 1,650 9.4 -5.9°
Sets 03:56:55 0° 179° (S) 2,513 10.2 -5.6°
